Location: Bacharowice
(49.9333°N, 19.5833°E)
Time: 11:05:07
(UTC+00:00)

CZ-4C R/B - Pass Details

Date: 11 May 2021
Orbit: 609 x 1393 km, 63.4° (Epoch: 22 June)

Event Time Altitude Azimuth Distance (km) Brightness Sun altitude
Rises 20:28:55 0° 314° (NW) 3,846 7.2 -16.2°
Reaches altitude 10° 20:31:31 10° 309° (NW) 2,996 6.2 -16.4°
Maximum altitude 20:38:21 44° 240° (WSW) 1,668 3.7 -17.0°
Enters shadow 20:43:47 20° 180° (S) 2,692 4.3 -17.4°
